TimeEDT,TemperatureF,Dew PointF,Humidity,Sea Level PressureIn,VisibilityMPH,Wind Direction,Wind SpeedMPH,Gust SpeedMPH,PrecipitationIn,Events,Conditions,WindDirDegrees,DateUTC
12:13 AM,59.0,59.0,100,29.68,6.0,SW,2.3,-,N/A,,Overcast,220,2013-05-12 04:13:00
12:58 AM,58.8,58.8,100,29.67,4.0,South,3.5,-,N/A,,Mostly Cloudy,170,2013-05-12 04:58:00
1:13 AM,59.0,59.0,100,29.66,4.0,SSW,3.5,-,N/A,,Scattered Clouds,210,2013-05-12 05:13:00
1:58 AM,58.3,58.3,100,29.66,4.0,SSW,5.8,-,N/A,,Mostly Cloudy,200,2013-05-12 05:58:00
2:58 AM,57.9,57.9,100,29.64,4.0,SE,3.5,-,N/A,,Mostly Cloudy,130,2013-05-12 06:58:00
3:13 AM,59.0,59.0,100,29.64,3.0,SE,4.6,-,N/A,,Mostly Cloudy,130,2013-05-12 07:13:00
3:28 AM,59.0,59.0,100,29.64,3.0,SSE,4.6,-,N/A,,Overcast,160,2013-05-12 07:28:00
3:43 AM,59.0,59.0,100,29.64,2.5,SSE,2.3,-,N/A,,Overcast,150,2013-05-12 07:43:00
3:58 AM,59.2,59.2,100,29.64,2.5,SSE,4.6,-,N/A,,Overcast,160,2013-05-12 07:58:00
4:58 AM,58.5,58.5,100,29.64,2.5,Calm,Calm,-,N/A,,Overcast,0,2013-05-12 08:58:00
5:28 AM,59.0,59.0,100,29.63,1.5,Calm,Calm,-,N/A,,Overcast,0,2013-05-12 09:28:00
5:43 AM,57.2,57.2,100,29.63,4.0,SSE,2.3,-,N/A,,Overcast,150,2013-05-12 09:43:00
5:58 AM,58.3,58.3,100,29.64,1.5,ESE,2.3,-,N/A,,Overcast,120,2013-05-12 09:58:00
6:13 AM,59.0,59.0,100,29.63,2.5,SE,4.6,-,N/A,,Overcast,130,2013-05-12 10:13:00
6:28 AM,59.0,59.0,100,29.63,2.0,SE,4.6,-,N/A,Rain,Light Rain,140,2013-05-12 10:28:00
6:58 AM,59.2,59.2,100,29.65,2.0,South,5.8,-,0.01,,Overcast,190,2013-05-12 10:58:00
7:13 AM,59.0,59.0,100,29.62,2.0,SSW,4.6,-,N/A,Rain,Light Rain,210,2013-05-12 11:13:00
7:33 AM,59.0,59.0,100,29.60,1.5,SE,4.6,-,N/A,Rain,Light Rain,140,2013-05-12 11:33:00
7:58 AM,59.7,59.7,100,29.62,2.0,SSW,3.5,-,0.01,,Overcast,200,2013-05-12 11:58:00
8:13 AM,60.8,60.8,100,29.62,2.0,South,4.6,-,N/A,Rain,Light Rain,190,2013-05-12 12:13:00
8:43 AM,60.8,60.8,100,29.62,2.0,South,4.6,-,N/A,Rain,Light Rain,180,2013-05-12 12:43:00
8:58 AM,60.4,60.4,100,29.62,2.0,South,3.5,-,0.03,Rain,Light Rain,170,2013-05-12 12:58:00
9:28 AM,60.8,60.8,100,29.60,4.0,SW,5.8,-,N/A,,Overcast,220,2013-05-12 13:28:00
9:58 AM,61.2,60.8,99,29.61,6.0,West,4.6,-,0.01,Rain,Light Rain,270,2013-05-12 13:58:00
10:13 AM,60.8,60.8,100,29.59,7.0,Variable,4.6,-,N/A,Rain,Light Rain,0,2013-05-12 14:13:00
10:43 AM,60.8,60.8,100,29.59,10.0,WNW,10.4,-,N/A,,Overcast,300,2013-05-12 14:43:00
10:58 AM,60.8,57.6,89,29.60,10.0,West,8.1,-,0.01,,Overcast,270,2013-05-12 14:58:00
11:19 AM,60.8,55.4,82,29.58,10.0,WNW,8.1,-,N/A,Rain,Light Rain Showers,290,2013-05-12 15:19:00
11:42 AM,59.0,57.2,94,29.58,10.0,West,5.8,-,N/A,,Overcast,260,2013-05-12 15:42:00
11:58 AM,60.8,57.9,90,29.59,10.0,West,5.8,-,0.00,,Overcast,270,2013-05-12 15:58:00
12:58 PM,63.5,50.5,63,29.59,10.0,WSW,6.9,-,N/A,,Overcast,250,2013-05-12 16:58:00
1:58 PM,68.2,49.6,51,29.58,10.0,West,6.9,-,N/A,,Mostly Cloudy,270,2013-05-12 17:58:00
2:58 PM,69.6,48.9,48,29.56,10.0,WSW,10.4,-,N/A,,Mostly Cloudy,250,2013-05-12 18:58:00
3:58 PM,69.8,48.6,47,29.55,10.0,SW,11.5,-,N/A,,Mostly Cloudy,220,2013-05-12 19:58:00
4:58 PM,68.7,46.4,45,29.56,10.0,WNW,8.1,-,N/A,,Mostly Cloudy,290,2013-05-12 20:58:00
5:58 PM,65.8,46.4,49,29.59,10.0,West,20.7,28.8,N/A,,Mostly Cloudy,270,2013-05-12 21:58:00
6:58 PM,59.0,37.4,45,29.64,10.0,West,12.7,-,N/A,,Mostly Cloudy,270,2013-05-12 22:58:00
7:58 PM,57.2,32.0,38,29.67,10.0,West,11.5,-,N/A,,Mostly Cloudy,280,2013-05-12 23:58:00
8:58 PM,54.5,33.6,45,29.70,10.0,West,11.5,-,N/A,,Partly Cloudy,270,2013-05-13 00:58:00
9:58 PM,52.3,28.2,39,29.73,10.0,West,8.1,-,N/A,,Clear,280,2013-05-13 01:58:00
10:58 PM,51.3,25.3,37,29.75,10.0,West,10.4,-,N/A,,Clear,280,2013-05-13 02:58:00
11:58 PM,50.4,24.8,37,29.78,10.0,West,9.2,-,N/A,,Clear,260,2013-05-13 03:58:00